Weather History for KLXV - April, 2013

Change the Weather History Date:

Tuesday, April 16, 2013

  Actual Average Record
Temperature  
Mean Temperature 29 °F -  
Max Temperature 44 °F 44 °F 57 °F (1990)
Min Temperature 14 °F 19 °F -1 °F (1983)
Degree Days  
Heating Degree Days 36 34  
Month to date heating degree days 594 575  
Since 1 July heating degree days 9446 9558  
Cooling Degree Days 0 0  
Month to date cooling degree days 0 0  
Year to date cooling degree days 0 0  
Moisture  
Dew Point 17 °F    
Average Humidity 64    
Maximum Humidity 100    
Minimum Humidity 27    
Precipitation  
Precipitation T in 0.03 in 0.56 in (2015)
Month to date precipitation 1.98 0.57  
Year to date precipitation 5.11 2.83  
Sea Level Pressure  
Sea Level Pressure 29.64 in    
Wind  
Wind Speed 11 mph (South)    
Max Wind Speed 32 mph    
Max Gust Speed 44 mph    
Visibility 8 miles    
Events      
T = Trace of Precipitation, MM = Missing Value Source: NWS Daily Summary

Daily Weather History Graph

Daily Weather History Graph

Search for Another Location

Airport or City:

Trip Planner

Search our weather history database for the weather conditions in past years. The results will help you decide how hot, cold, wet, or windy it might be!

Date:

Astronomy

Apr. 16, 2013 Rise Set
Actual Time 6:26 AM MDT 7:44 PM MDT
Civil Twilight 5:58 AM MDT 8:11 PM MDT
Nautical Twilight 5:25 AM MDT 8:45 PM MDT
Astronomical Twilight 4:50 AM MDT 9:20 PM MDT
Moon 10:48 AM MDT (4/16) 12:42 AM MDT (4/16)
Length of Visible Light 14h 13m
Length of Day
13h 17m
Waxing Crescent, 34% of the Moon is Illuminated
Apr 16
Waxing Crescent
Apr 18
First Quarter
Apr 25
Full
May 2
Last Quarter
May 9
New

Hourly Weather History & Observations

Time (MDT) Temp. Windchill Dew Point Humidity Pressure Visibility Wind Dir Wind Speed Gust Speed Precip Events Conditions
12:53 AM 23.0 °F 13.1 °F 19.0 °F 85% 29.64 in 10.0 mi SSE 9.2 mph - N/A   Overcast
1:53 AM 19.9 °F 3.9 °F 18.0 °F 92% 29.62 in 9.0 mi South 20.7 mph - 0.00 in   Overcast
2:53 AM 19.0 °F 5.6 °F 17.1 °F 92% 29.67 in 10.0 mi South 13.8 mph 25.3 mph 0.00 in   Overcast
3:32 AM 17.6 °F 3.2 °F 15.8 °F 93% 29.75 in 10.0 mi South 15.0 mph - N/A   Overcast
3:53 AM 17.1 °F 4.3 °F 15.1 °F 92% 29.67 in 10.0 mi South 11.5 mph - N/A   Scattered Clouds
4:53 AM 15.1 °F - 12.9 °F 91% 29.69 in 10.0 mi Calm Calm - N/A   Scattered Clouds
5:05 AM 15.8 °F - 12.2 °F 86% 29.75 in 7.0 mi Calm Calm - N/A   Mostly Cloudy
5:29 AM 17.6 °F 5.7 °F 15.8 °F 93% 29.75 in 6.0 mi West 10.4 mph - N/A   Mostly Cloudy
5:36 AM 17.6 °F 6.4 °F 15.8 °F 93% 29.75 in 3.0 mi West 9.2 mph - N/A   Overcast
5:53 AM 16.0 °F - 15.1 °F 96% 29.69 in 7.0 mi Calm Calm - N/A   Overcast
6:53 AM 16.0 °F 10.4 °F 14.0 °F 92% 29.70 in 10.0 mi NW 3.5 mph - N/A   Overcast
7:53 AM 17.1 °F - 16.0 °F 96% 29.71 in 10.0 mi Calm Calm - N/A   Overcast
8:49 AM 17.6 °F 6.4 °F 15.8 °F 93% 29.78 in 1.8 mi South 9.2 mph - N/A   Overcast
8:53 AM 18.0 °F 8.7 °F 16.0 °F 92% 29.73 in 1.0 mi South 6.9 mph - N/A   Overcast
9:07 AM 17.6 °F 10.7 °F 17.6 °F 100% 29.78 in 2.5 mi SSE 4.6 mph - N/A   Overcast
9:22 AM 17.6 °F 7.3 °F 17.6 °F 100% 29.78 in 1.5 mi South 8.1 mph - N/A   Overcast
9:33 AM 17.6 °F 10.7 °F 17.6 °F 100% 29.78 in 3.0 mi Variable 4.6 mph - N/A   Overcast
9:53 AM 19.0 °F - 18.0 °F 96% 29.72 in 10.0 mi Calm Calm - N/A   Overcast
10:10 AM 19.4 °F - 17.6 °F 93% 29.76 in 10.0 mi Calm Calm - N/A   Overcast
10:36 AM 24.8 °F 20.5 °F 19.4 °F 80% 29.75 in 10.0 mi North 3.5 mph - N/A   Overcast
10:53 AM 27.0 °F - 19.0 °F 72% 29.65 in 10.0 mi Calm Calm - N/A   Mostly Cloudy
11:53 AM 28.9 °F 20.4 °F 21.0 °F 72% 29.57 in 10.0 mi SSE 9.2 mph - N/A   Mostly Cloudy
12:53 PM 35.1 °F 25.9 °F 21.0 °F 57% 29.49 in 10.0 mi SSE 13.8 mph - N/A   Mostly Cloudy
1:53 PM 39.0 °F 28.8 °F 17.1 °F 41% 29.45 in 10.0 mi South 21.9 mph 31.1 mph N/A   Overcast
2:53 PM 39.9 °F 28.4 °F 17.1 °F 40% 29.45 in 10.0 mi South 29.9 mph 36.8 mph N/A   Overcast
3:53 PM 41.0 °F 31.9 °F 17.1 °F 38% 29.47 in 10.0 mi South 19.6 mph 27.6 mph N/A   Overcast
4:53 PM 42.1 °F 32.1 °F 15.1 °F 34% 29.46 in 10.0 mi South 25.3 mph 34.5 mph N/A   Overcast
5:53 PM 43.0 °F 32.5 °F 10.9 °F 27% 29.44 in 10.0 mi South 29.9 mph 40.3 mph N/A   Overcast
6:53 PM 39.0 °F - 19.9 °F 46% 29.51 in 10.0 mi Calm Calm - N/A   Overcast
7:53 PM 35.1 °F 29.3 °F 19.0 °F 52% 29.54 in 10.0 mi SSW 6.9 mph - N/A   Overcast
8:53 PM 32.0 °F 22.1 °F 19.9 °F 61% 29.59 in 10.0 mi South 13.8 mph - N/A   Overcast
9:53 PM 30.0 °F 21.1 °F 19.0 °F 64% 29.61 in 10.0 mi South 10.4 mph - N/A   Overcast
10:53 PM 28.0 °F 20.8 °F 19.0 °F 69% 29.59 in 10.0 mi Variable 6.9 mph - N/A   Overcast
11:53 PM 25.0 °F 16.3 °F 19.0 °F 78% 29.61 in 10.0 mi South 8.1 mph - N/A   Overcast